QPF
0.00 0.00 0.00 0.00 0.00 0.00 0.00 0.00 0.00 0.00 0.00 0.00 0.00 0.00 0.00 0.00 0.00 0.00 0.03 0.16 0.04 0.00 0.00 0.00 0.00 0.00 0.00 0.00 0.00 0.00 0.00 0.00 0.00 0.00 0.00 0.00 0.00 0.00 0.00 0.00 0.00 0.00 0.00 0.00 0.00 0.00 0.00 0.00 0.00
0.00 0.00 0.00 0.00 0.00 0.00 0.00 0.00 0.00 0.00 0.00 0.00 0.00 0.00 0.00 0.00 0.00 0.00 0.00 0.01 0.01 0.00 0.00 0.00 0.00 0.00 0.00 0.00 0.00 0.00 0.00 0.00 0.00 0.00 0.00 0.00 0.00 0.00 0.00 0.00 0.00 0.00 0.00 0.00 0.00 0.00 0.00 0.00 0.00
0.00 0.00 0.00 0.00 0.00 0.00 0.00 0.00 0.00 0.00 0.00 0.00 0.00 0.01 0.00 0.00 0.00 0.00 0.00 0.00 0.00 0.00 0.00 0.00 0.00 0.00 0.00 0.00 0.00 0.00 0.00 0.00 0.00 0.00 0.00 0.00 0.00 0.00 0.00 0.00 0.00 0.00 0.00 0.00 0.00 0.00 0.00 0.00 0.00
0.00 0.00 0.00 0.00 0.00 0.00 0.00 0.00 0.00 0.00 0.00 0.00 0.00 0.00 0.00 0.00 0.00 0.00 0.00 0.00 0.00 0.00 0.00 0.00 0.00 0.00 0.00 0.00 0.00 0.00 0.00 0.00 0.00 0.00 0.00 0.00 0.00 0.00 0.00 0.00 0.00 0.00 0.00 0.00 0.00 0.00 0.00 0.00 0.00
0.00 0.00 0.00 0.00 0.00 0.00 0.00 0.00 0.00 0.00 0.00 0.00 0.00 0.00 0.01 0.00 0.00 0.00 0.00 0.00 0.00 0.00 0.00 0.00 0.00 0.00 0.00 0.00 0.00 0.00 0.00 0.00 0.00 0.00 0.00 0.00 0.00 0.00 0.00 0.00 0.00 0.00 0.00 0.00 0.00 0.00 0.00 0.00 0.00
0.00 0.00 0.00 0.00 0.00 0.00 0.00 0.00 0.00 0.00 0.00 0.00 0.00 0.00 0.00 0.00 0.00 0.00 0.00 0.00 0.03 0.00 0.00 0.00 0.00 0.00 0.00 0.00 0.00 0.00 0.00 0.00 0.00 0.00 0.00 0.00 0.00 0.00 0.00 0.00 0.00 0.00 0.00 0.00 0.00 0.00 0.00 0.00 0.00
0.00 0.00 0.00 0.00 0.00 0.00 0.00 0.00 0.00 0.00 0.00 0.00 0.00 0.00 0.03 0.01 0.00 0.00 0.00 0.00 0.00 0.00 0.00 0.00 0.00 0.00 0.00 0.00 0.00 0.00 0.00 0.00 0.00 0.00 0.00 0.00 0.00 0.00 0.00 0.00 0.00 0.00 0.00 0.00 0.00 0.00 0.00 0.00 0.00
0.00 0.00 0.00 0.00 0.00 0.00 0.00 0.00 0.00 0.00 0.00 0.00 0.00 0.00 0.03 0.03 0.04 0.02 0.03 0.01 0.00 0.00 0.00 0.00 0.00 0.00 0.00 0.00 0.00 0.00 0.00 0.00 0.00 0.00 0.00 0.00 0.00 0.00 0.00 0.00 0.00 0.00 0.00 0.00 0.00 0.00 0.00 0.00 0.00
0.00 0.00 0.00 0.00 0.00 0.00 0.00 0.00 0.00 0.00 0.00 0.00 0.00 0.00 0.02 0.08 0.07 0.03 0.01 0.00 0.00 0.00 0.00 0.00 0.00 0.00 0.00 0.00 0.00 0.00 0.00 0.00 0.00 0.00 0.00 0.00 0.00 0.00 0.00 0.00 0.00 0.00 0.00 0.00 0.00 0.00 0.00 0.00 0.00
0.00 0.00 0.00 0.00 0.00 0.00 0.00 0.00 0.00 0.00 0.00 0.00 0.01 0.00 0.00 0.01 0.01 0.00 0.00 0.00 0.00 0.00 0.00 0.00 0.00 0.00 0.00 0.00 0.00 0.00 0.00 0.00 0.00 0.00 0.00 0.00 0.00 0.00 0.00 0.00 0.00 0.00 0.00 0.00 0.00 0.00 0.00 0.00 0.00
0.00 0.00 0.00 0.00 0.00 0.00 0.00 0.00 0.00 0.00 0.00 0.00 0.08 0.07 0.01 0.03 0.00 0.00 0.00 0.00 0.00 0.00 0.00 0.00 0.00 0.00 0.00 0.00 0.00 0.00 0.00 0.00 0.00 0.00 0.00 0.00 0.00 0.00 0.00 0.00 0.00 0.00 0.00 0.00 0.00 0.00 0.00 0.00 0.00
0.00 0.00 0.00 0.00 0.00 0.00 0.00 0.00 0.00 0.00 0.00 0.00 0.04 0.16 0.06 0.00 0.00 0.00 0.00 0.00 0.00 0.00 0.00 0.00 0.00 0.00 0.00 0.00 0.00 0.00 0.00 0.00 0.00 0.00 0.00 0.00 0.00 0.00 0.00 0.00 0.00 0.00 0.00 0.00 0.00 0.00 0.00 0.00 0.00
0.00 0.00 0.00 0.00 0.00 0.00 0.00 0.00 0.00 0.00 0.00 0.00 0.00 0.17 0.16 0.02 0.00 0.00 0.00 0.00 0.00 0.00 0.00 0.00 0.00 0.00 0.00 0.00 0.00 0.00 0.00 0.00 0.00 0.00 0.00 0.00 0.00 0.00 0.00 0.00 0.00 0.00 0.00 0.00 0.00 0.00 0.00 0.00 0.00
0.00 0.00 0.00 0.00 0.00 0.00 0.00 0.00 0.00 0.00 0.00 0.00 0.00 0.07 0.21 0.14 0.01 0.00 0.00 0.00 0.00 0.00 0.00 0.00 0.00 0.00 0.00 0.00 0.00 0.00 0.00 0.00 0.00 0.00 0.00 0.00 0.00 0.00 0.00 0.00 0.00 0.00 0.00 0.00 0.00 0.00 0.00 0.00 0.00
0.00 0.00 0.00 0.00 0.00 0.00 0.00 0.00 0.00 0.00 0.00 0.00 0.00 0.00 0.10 0.19 0.09 0.01 0.00 0.00 0.00 0.00 0.00 0.00 0.00 0.00 0.00 0.00 0.00 0.00 0.00 0.00 0.00 0.00 0.00 0.00 0.00 0.00 0.00 0.00 0.00 0.00 0.00 0.00 0.00 0.00 0.00 0.00 0.00
0.00 0.00 0.00 0.00 0.00 0.00 0.00 0.00 0.00 0.00 0.00 0.00 0.00 0.00 0.02 0.18 0.25 0.08 0.03 0.01 0.00 0.00 0.00 0.00 0.00 0.00 0.00 0.00 0.00 0.00 0.00 0.00 0.00 0.00 0.00 0.00 0.00 0.00 0.00 0.00 0.00 0.00 0.00 0.00 0.00 0.00 0.00 0.00 0.00
0.00 0.00 0.00 0.00 0.00 0.00 0.00 0.00 0.00 0.00 0.00 0.00 0.00 0.00 0.02 0.12 0.14 0.09 0.05 0.04 0.01 0.00 0.00 0.00 0.00 0.00 0.00 0.00 0.00 0.00 0.00 0.00 0.00 0.00 0.00 0.00 0.00 0.00 0.00 0.00 0.00 0.00 0.00 0.00 0.00 0.00 0.00 0.00 0.00
0.00 0.00 0.00 0.00 0.00 0.00 0.00 0.00 0.00 0.00 0.00 0.00 0.00 0.00 0.00 0.03 0.09 0.10 0.06 0.05 0.04 0.06 0.06 0.02 0.00 0.00 0.00 0.00 0.00 0.00 0.00 0.00 0.00 0.00 0.00 0.00 0.00 0.00 0.00 0.00 0.00 0.00 0.00 0.00 0.00 0.00 0.00 0.00 0.00
0.00 0.00 0.00 0.00 0.00 0.00 0.00 0.00 0.00 0.00 0.00 0.00 0.00 0.00 0.00 0.00 0.01 0.07 0.09 0.07 0.11 0.12 0.13 0.02 0.02 0.00 0.00 0.00 0.00 0.00 0.00 0.00 0.00 0.00 0.00 0.00 0.00 0.00 0.00 0.00 0.00 0.00 0.00 0.00 0.00 0.00 0.00 0.00 0.00
0.00 0.00 0.00 0.00 0.01 0.01 0.00 0.00 0.00 0.00 0.00 0.00 0.00 0.00 0.00 0.00 0.00 0.00 0.05 0.03 0.09 0.18 0.11 0.02 0.02 0.00 0.00 0.00 0.00 0.00 0.00 0.00 0.00 0.00 0.00 0.00 0.00 0.00 0.00 0.00 0.00 0.00 0.00 0.00 0.00 0.00 0.00 0.00 0.00
0.00 0.00 0.00 0.00 0.00 0.00 0.00 0.00 0.00 0.00 0.00 0.00 0.00 0.00 0.00 0.00 0.00 0.00 0.00 0.00 0.02 0.09 0.33 0.21 0.02 0.02 0.00 0.00 0.00 0.00 0.00 0.00 0.00 0.00 0.00 0.00 0.00 0.00 0.00 0.00 0.00 0.00 0.00 0.00 0.00 0.00 0.00 0.00 0.00
0.00 0.00 0.00 0.00 0.00 0.00 0.00 0.00 0.00 0.00 0.00 0.00 0.00 0.00 0.00 0.00 0.00 0.00 0.00 0.00 0.00 0.06 0.15 0.39 0.20 0.04 0.00 0.00 0.00 0.00 0.00 0.00 0.00 0.00 0.00 0.00 0.00 0.00 0.00 0.00 0.00 0.00 0.00 0.00 0.00 0.00 0.00 0.00 0.00
0.00 0.00 0.00 0.00 0.00 0.00 0.00 0.00 0.00 0.00 0.00 0.00 0.00 0.00 0.00 0.00 0.00 0.00 0.00 0.00 0.00 0.03 0.07 0.28 0.44 0.26 0.02 0.00 0.00 0.00 0.00 0.00 0.00 0.00 0.00 0.00 0.00 0.00 0.00 0.00 0.00 0.00 0.00 0.00 0.00 0.00 0.00 0.00 0.00
0.00 0.00 0.00 0.00 0.00 0.00 0.00 0.00 0.00 0.00 0.00 0.00 0.00 0.00 0.00 0.00 0.00 0.00 0.00 0.00 0.00 0.03 0.09 0.19 0.20 0.24 0.09 0.00 0.00 0.00 0.00 0.00 0.00 0.00 0.00 0.00 0.00 0.00 0.00 0.00 0.00 0.00 0.00 0.00 0.00 0.00 0.00 0.00 0.00
0.01 0.01 0.01 0.00 0.00 0.00 0.00 0.00 0.00 0.00 0.00 0.00 0.00 0.00 0.00 0.00 0.00 0.01 0.00 0.00 0.01 0.05 0.16 0.20 0.20 0.07 0.07 0.00 0.00 0.00 0.00 0.00 0.00 0.00 0.00 0.00 0.00 0.00 0.00 0.00 0.00 0.00 0.00 0.00 0.00 0.00 0.00 0.00 0.00
0.01 0.02 0.02 0.00 0.00 0.00 0.00 0.00 0.00 0.00 0.00 0.00 0.00 0.00 0.00 0.00 0.02 0.03 0.00 0.01 0.01 0.00 0.03 0.09 0.20 0.07 0.03 0.01 0.01 0.00 0.00 0.00 0.00 0.00 0.00 0.00 0.00 0.00 0.00 0.00 0.00 0.00 0.00 0.00 0.00 0.00 0.00 0.00 0.00
0.03 0.01 0.01 0.00 0.00 0.00 0.00 0.00 0.00 0.00 0.00 0.00 0.00 0.00 0.00 0.00 0.02 0.04 0.04 0.02 0.01 0.00 0.00 0.01 0.09 0.04 0.00 0.01 0.01 0.01 0.00 0.00 0.00 0.00 0.00 0.00 0.00 0.00 0.00 0.00 0.00 0.00 0.00 0.00 0.00 0.00 0.00 0.00 0.00
0.03 0.04 0.00 0.00 0.00 0.00 0.00 0.00 0.00 0.01 0.01 0.00 0.00 0.00 0.00 0.00 0.02 0.06 0.05 0.04 0.01 0.03 0.03 0.05 0.10 0.03 0.00 0.00 0.00 0.00 0.00 0.00 0.00 0.00 0.00 0.00 0.00 0.00 0.00 0.00 0.00 0.00 0.00 0.00 0.00 0.00 0.00 0.00 0.00
0.01 0.01 0.00 0.00 0.00 0.00 0.00 0.01 0.00 0.00 0.01 0.01 0.00 0.00 0.00 0.00 0.00 0.03 0.06 0.07 0.04 0.08 0.11 0.02 0.03 0.00 0.00 0.00 0.00 0.00 0.00 0.00 0.00 0.00 0.00 0.00 0.00 0.00 0.00 0.00 0.00 0.00 0.00 0.00 0.00 0.00 0.00 0.00 0.00
0.01 0.00 0.00 0.00 0.00 0.00 0.00 0.00 0.00 0.00 0.01 0.02 0.00 0.00 0.00 0.00 0.00 0.00 0.01 0.08 0.17 0.18 0.13 0.05 0.01 0.00 0.04 0.03 0.03 0.00 0.00 0.00 0.00 0.00 0.00 0.00 0.00 0.00 0.00 0.00 0.00 0.00 0.00 0.00 0.00 0.00 0.00 0.00 0.00
MSLP
1011.07 1010.58 1010.54 1010.77 1011.94 1012.15 1010.74 1008.48 1006.58 1005.19 1004.52 1003.15 1003.26 1003.99 1004.03 1004.29 1006.04 1008.03 1008.83 1009.82 1009.89 1009.88 1009.89 1009.66 1009.79 1009.95 1010.31 1009.97 1009.59 1009.84 1010.31 1010.70 1011.05 1011.07 1011.01 1011.28 1011.54 1011.83 1012.11 1012.36 1012.53 1012.70 1012.84 1012.91 1012.98 1013.06 1013.06 1012.97 1012.87
1011.05 1010.61 1010.77 1011.40 1012.32 1012.30 1010.09 1007.81 1005.95 1004.08 1003.70 1003.36 1002.83 1003.07 1003.71 1003.95 1004.80 1006.95 1007.53 1005.03 1007.68 1008.83 1009.19 1009.43 1009.40 1009.67 1010.09 1010.13 1009.97 1009.83 1010.16 1010.72 1011.10 1011.30 1011.38 1011.55 1011.73 1011.97 1012.25 1012.49 1012.70 1012.80 1012.91 1012.98 1013.02 1013.03 1013.04 1012.97 1012.82
1011.07 1011.01 1011.65 1012.00 1012.19 1011.35 1009.70 1007.09 1005.16 1004.44 1003.20 1003.15 1003.28 1003.48 1003.33 1003.39 1004.39 1004.23 1003.91 1003.96 1005.74 1007.32 1008.18 1008.98 1009.13 1009.37 1009.67 1010.13 1010.24 1010.06 1010.29 1010.72 1011.11 1011.35 1011.68 1011.80 1011.95 1012.10 1012.45 1012.66 1012.79 1012.91 1012.99 1012.98 1012.95 1012.95 1012.94 1012.87 1012.80
1011.13 1011.47 1012.03 1011.96 1011.43 1009.94 1008.36 1006.48 1005.06 1004.83 1003.37 1002.65 1003.10 1003.13 1002.87 1002.78 1003.53 1003.57 1003.75 1005.19 1006.47 1006.98 1007.43 1008.17 1008.67 1009.00 1009.42 1009.91 1010.13 1010.21 1010.35 1010.70 1011.11 1011.39 1011.81 1011.96 1012.15 1012.29 1012.59 1012.90 1012.88 1012.90 1012.99 1013.01 1012.92 1012.86 1012.90 1012.85 1012.79
1011.40 1012.09 1012.57 1012.07 1010.79 1009.41 1007.78 1006.51 1005.38 1005.01 1004.50 1002.98 1002.74 1003.01 1002.93 1002.80 1003.14 1003.51 1003.72 1005.21 1006.18 1007.19 1008.09 1007.85 1008.18 1008.69 1009.31 1009.68 1009.91 1010.19 1010.35 1010.57 1011.05 1011.45 1011.74 1012.07 1012.31 1012.42 1012.63 1012.91 1013.01 1012.91 1012.92 1012.96 1012.83 1012.96 1012.98 1012.97 1012.96
1012.00 1012.48 1012.93 1012.16 1010.49 1008.99 1007.45 1006.26 1005.31 1004.68 1004.39 1002.97 1002.38 1002.33 1002.87 1002.67 1003.39 1004.15 1004.56 1005.18 1006.05 1007.01 1008.13 1007.87 1008.22 1008.49 1009.01 1009.54 1009.91 1010.18 1010.36 1010.47 1010.89 1011.38 1011.64 1012.04 1012.43 1012.69 1012.80 1012.87 1013.03 1012.94 1012.94 1012.76 1012.95 1013.03 1013.09 1013.14 1013.08
1012.23 1012.85 1012.66 1011.75 1010.52 1008.98 1007.42 1005.96 1005.47 1004.71 1003.89 1002.78 1002.37 1002.64 1003.29 1003.85 1003.79 1005.13 1005.06 1005.67 1006.34 1007.05 1007.55 1008.08 1008.30 1008.69 1008.71 1009.36 1009.91 1010.20 1010.41 1010.63 1010.90 1011.25 1011.65 1011.95 1012.35 1012.68 1012.85 1012.87 1012.94 1012.94 1012.90 1012.97 1012.95 1013.11 1013.23 1013.12 1012.92
1011.95 1012.43 1012.35 1011.52 1010.51 1008.85 1006.80 1006.11 1005.43 1004.66 1003.66 1002.97 1002.21 1001.71 1002.61 1003.31 1003.29 1004.65 1006.24 1006.22 1006.71 1007.11 1007.04 1007.89 1008.53 1008.92 1009.01 1009.30 1009.54 1010.06 1010.42 1010.70 1010.93 1011.17 1011.39 1011.83 1012.29 1012.43 1012.71 1012.80 1012.83 1013.05 1013.09 1013.02 1013.04 1013.13 1013.13 1012.96 1012.81
1011.38 1012.49 1012.33 1011.28 1010.11 1008.77 1006.61 1006.60 1005.37 1004.40 1003.62 1002.26 1001.27 1000.04 1001.38 1003.41 1004.03 1004.70 1006.04 1006.58 1006.99 1007.17 1007.19 1007.91 1008.42 1008.88 1009.08 1009.35 1009.51 1009.81 1010.21 1010.59 1010.89 1011.23 1011.42 1011.83 1012.22 1012.29 1012.40 1012.61 1012.75 1012.90 1013.23 1013.03 1012.89 1013.07 1012.93 1012.87 1012.94
1011.39 1012.00 1011.35 1010.51 1009.61 1008.62 1006.77 1006.91 1005.63 1004.61 1003.94 1002.75 1001.13 999.54 1000.47 1001.43 1003.57 1003.96 1005.29 1006.13 1006.41 1006.80 1007.24 1007.74 1008.13 1008.70 1009.40 1009.38 1009.65 1009.97 1010.23 1010.52 1010.79 1011.10 1011.45 1011.84 1012.08 1012.36 1012.31 1012.56 1012.65 1012.88 1013.06 1012.97 1012.91 1013.25 1012.94 1012.87 1012.78
1010.97 1010.92 1010.51 1009.53 1008.73 1008.03 1006.79 1006.30 1005.69 1004.95 1004.27 1003.72 1003.30 1002.89 1001.36 1002.03 1003.33 1003.29 1004.13 1005.00 1005.24 1006.31 1006.80 1007.43 1007.85 1008.56 1009.33 1009.55 1009.71 1009.89 1010.29 1010.57 1010.73 1011.11 1011.34 1011.83 1012.12 1012.33 1012.54 1012.65 1012.75 1012.87 1012.97 1013.09 1013.28 1012.92 1012.77 1012.58 1012.59
1010.92 1010.33 1009.91 1008.98 1008.09 1007.51 1006.65 1005.65 1004.69 1004.72 1004.19 1003.62 1003.47 1003.72 1004.94 1001.51 1001.98 1002.32 1003.23 1004.42 1004.78 1005.82 1006.61 1007.13 1007.82 1008.47 1009.00 1009.28 1009.76 1009.85 1010.31 1010.57 1010.77 1010.97 1011.38 1011.81 1012.06 1012.28 1012.49 1012.59 1012.66 1012.85 1013.00 1013.03 1013.10 1012.95 1012.79 1012.67 1012.56
1010.68 1010.24 1009.51 1008.72 1008.09 1007.16 1006.39 1005.35 1004.52 1003.63 1003.66 1003.15 1002.91 1003.94 1004.48 1001.86 1001.29 1000.58 1001.47 1003.11 1004.15 1004.95 1005.97 1006.72 1007.51 1008.23 1008.69 1009.31 1009.72 1010.01 1010.16 1010.41 1010.60 1010.92 1011.16 1011.59 1011.87 1012.21 1012.25 1012.45 1012.52 1012.81 1012.70 1012.84 1012.92 1013.09 1012.80 1012.84 1012.64
1010.93 1010.38 1009.53 1008.59 1007.74 1006.95 1006.43 1005.26 1004.56 1002.43 1003.09 1002.79 1002.24 1003.01 1004.25 1002.94 1000.87 1001.01 1001.23 1002.84 1003.67 1004.47 1005.26 1005.97 1006.92 1007.80 1008.53 1009.01 1009.49 1009.94 1010.07 1010.25 1010.66 1010.79 1010.96 1011.38 1011.62 1012.00 1012.32 1012.44 1012.60 1012.61 1012.61 1012.81 1012.82 1012.92 1013.10 1013.17 1012.94
1011.14 1010.69 1009.57 1008.64 1007.84 1007.01 1006.38 1005.22 1003.77 1002.78 1002.80 1002.57 1001.81 1001.53 1002.69 1002.52 1001.92 1000.72 999.97 1001.37 1002.37 1003.54 1004.75 1005.49 1006.50 1007.49 1008.22 1008.73 1009.27 1009.74 1009.80 1010.03 1010.53 1010.69 1010.82 1011.01 1011.38 1011.68 1011.97 1012.39 1012.49 1012.57 1012.61 1012.49 1012.78 1013.01 1013.13 1013.20 1013.17
1011.49 1011.18 1010.55 1009.25 1008.31 1007.12 1006.95 1005.68 1002.81 1003.35 1003.08 1002.08 1001.86 1001.10 1002.32 1003.75 1002.47 1001.89 1001.12 1001.39 1002.33 1003.19 1004.47 1005.45 1006.30 1007.29 1008.02 1008.57 1009.19 1009.56 1009.80 1009.88 1010.22 1010.43 1010.66 1010.91 1011.05 1011.47 1011.89 1012.25 1012.41 1012.51 1012.57 1012.73 1013.13 1013.36 1013.62 1013.73 1013.65
1012.43 1012.28 1011.33 1010.10 1009.19 1008.56 1007.76 1006.51 1002.73 1003.51 1003.11 1002.03 1002.05 1001.41 1001.60 1002.19 1002.85 1002.34 1002.01 1002.44 1003.04 1003.52 1004.29 1005.24 1006.27 1007.30 1007.97 1008.60 1009.14 1009.53 1009.78 1009.90 1010.00 1010.37 1010.77 1010.93 1011.18 1011.57 1012.09 1012.37 1012.50 1012.65 1012.96 1013.28 1013.42 1013.66 1013.95 1014.18 1014.17
1012.73 1012.27 1011.41 1010.54 1009.46 1008.95 1008.23 1006.84 1004.07 1003.73 1003.41 1002.16 1001.83 1001.57 1001.46 1001.64 1002.03 1003.36 1002.27 1002.93 1003.64 1004.50 1005.31 1005.73 1006.22 1007.21 1007.86 1008.48 1008.99 1009.42 1009.81 1010.03 1010.10 1010.48 1010.79 1011.15 1011.40 1011.77 1012.37 1012.59 1012.83 1012.86 1013.31 1013.63 1013.65 1013.97 1014.28 1014.60 1014.68
1011.95 1011.61 1011.04 1010.03 1009.12 1009.16 1008.40 1007.09 1005.02 1003.99 1003.11 1002.28 1001.55 1001.54 1001.59 1001.78 1002.15 1003.63 1003.57 1002.81 1003.75 1004.86 1005.64 1006.05 1006.28 1006.82 1007.36 1008.39 1009.04 1009.45 1009.93 1010.29 1010.69 1010.72 1011.03 1011.53 1011.74 1012.13 1012.55 1012.94 1013.13 1013.37 1013.81 1014.03 1013.96 1014.31 1014.88 1015.04 1014.98
1011.05 1010.90 1010.41 1009.42 1008.71 1008.96 1008.27 1007.01 1005.31 1003.85 1002.72 1001.92 1001.23 1001.22 1001.52 1001.60 1001.60 1002.70 1003.53 1002.90 1003.58 1005.11 1006.46 1006.77 1006.36 1006.60 1006.95 1007.88 1008.68 1009.05 1009.67 1010.39 1010.65 1011.34 1011.79 1012.13 1012.10 1012.55 1012.80 1013.30 1013.63 1013.85 1014.19 1014.32 1014.57 1014.62 1015.24 1015.57 1015.57
1009.95 1009.92 1009.50 1009.32 1008.49 1008.38 1008.16 1006.79 1005.23 1003.25 1002.15 1001.43 1000.50 1000.39 1001.21 1001.52 1001.91 1002.93 1003.56 1003.51 1003.76 1004.70 1006.69 1008.06 1006.26 1006.33 1006.66 1007.21 1008.43 1009.61 1010.12 1010.70 1011.30 1012.01 1012.50 1012.81 1012.75 1012.87 1013.43 1013.63 1014.00 1014.33 1014.54 1014.92 1015.05 1014.99 1015.33 1015.96 1016.12
1009.05 1008.86 1008.71 1008.64 1008.45 1007.87 1008.15 1007.40 1004.83 1003.43 1001.84 1001.18 1000.57 999.95 1000.31 1001.29 1001.77 1002.27 1002.85 1003.86 1003.35 1003.73 1006.03 1005.50 1006.63 1006.07 1006.31 1006.78 1008.16 1009.18 1010.35 1010.90 1012.01 1012.59 1013.04 1013.24 1013.09 1013.41 1013.96 1014.14 1014.35 1014.72 1014.96 1015.32 1015.46 1015.27 1015.49 1015.86 1016.83
1008.37 1008.19 1008.57 1008.38 1008.49 1008.52 1007.67 1007.57 1004.21 1003.71 1002.17 1000.61 1000.33 999.90 999.60 1000.80 1001.65 1002.06 1001.96 1002.91 1002.81 1003.67 1002.90 1006.29 1007.09 1006.94 1006.76 1006.72 1007.95 1009.37 1010.39 1011.07 1012.10 1012.92 1013.44 1013.64 1013.80 1014.01 1014.58 1014.67 1014.99 1015.25 1015.39 1015.68 1015.81 1015.82 1015.92 1016.17 1016.88
1008.10 1008.51 1008.72 1008.64 1008.92 1008.75 1007.57 1007.48 1003.82 1003.57 1001.62 1000.17 999.59 999.51 999.20 1000.13 1001.01 1001.51 1001.65 1002.57 1002.58 1003.38 1003.80 1005.29 1006.55 1005.51 1006.96 1006.93 1008.01 1009.01 1010.22 1011.11 1012.15 1013.27 1013.53 1014.14 1014.22 1014.88 1014.99 1015.00 1015.27 1015.61 1015.82 1016.05 1016.31 1016.52 1016.66 1016.80 1017.21
1007.99 1009.17 1010.10 1010.06 1010.03 1009.06 1007.85 1006.90 1003.72 1002.13 1000.68 999.71 999.38 999.19 998.81 999.67 1000.34 1001.38 1001.77 1002.57 1002.72 1002.52 1003.07 1004.92 1006.80 1007.23 1007.23 1007.49 1008.03 1008.79 1009.98 1010.73 1011.76 1012.89 1013.50 1014.04 1014.84 1015.37 1015.32 1015.34 1015.69 1016.05 1016.10 1016.24 1016.57 1016.85 1017.33 1017.35 1017.58
1008.25 1009.23 1010.61 1010.59 1010.53 1009.85 1008.16 1006.25 1003.99 1001.73 1000.22 999.63 999.42 999.00 998.66 999.05 999.66 1000.74 1001.00 1001.75 1002.17 1002.72 1003.57 1005.45 1007.35 1007.74 1007.39 1007.49 1008.21 1008.84 1010.04 1010.64 1011.65 1012.53 1013.34 1014.07 1015.05 1015.31 1015.42 1015.59 1015.79 1016.11 1016.22 1016.51 1017.07 1017.39 1017.74 1017.74 1017.79
1008.10 1008.89 1009.62 1010.54 1010.71 1010.09 1008.02 1005.63 1003.81 1002.07 1000.99 999.73 998.99 998.52 998.21 998.49 998.97 999.65 1000.53 1000.32 1001.50 1002.07 1003.25 1004.03 1005.24 1006.08 1006.70 1006.92 1007.69 1008.69 1009.87 1010.49 1011.21 1012.51 1013.33 1014.17 1014.80 1015.29 1015.60 1015.97 1016.09 1016.42 1016.61 1016.96 1017.39 1017.78 1018.12 1017.97 1018.20
1007.53 1008.67 1009.84 1010.59 1010.62 1009.49 1007.61 1005.66 1004.16 1002.77 1001.65 1001.16 1000.50 999.06 998.03 998.22 998.31 998.80 999.71 1000.51 1000.82 1001.41 1002.57 1003.33 1004.43 1005.23 1006.07 1006.92 1007.55 1008.60 1009.63 1010.48 1011.42 1012.29 1013.62 1014.39 1014.68 1015.23 1015.80 1016.29 1016.30 1016.69 1017.09 1017.52 1017.62 1018.15 1018.51 1018.42 1018.66
1007.90 1008.45 1009.21 1009.93 1009.90 1008.95 1007.58 1005.30 1003.99 1003.60 1002.94 1001.77 1000.70 999.32 998.03 997.13 997.61 998.27 999.25 999.89 1000.10 1000.98 1001.78 1002.80 1004.16 1005.27 1006.31 1006.89 1008.02 1008.48 1010.01 1010.81 1011.81 1012.81 1013.65 1014.21 1014.81 1015.34 1016.02 1016.22 1016.51 1016.87 1017.51 1017.83 1018.09 1018.36 1018.69 1018.87 1019.05
1007.63 1007.88 1008.66 1009.62 1009.06 1008.01 1006.73 1004.53 1003.75 1003.85 1003.46 1002.53 1001.39 999.67 997.41 995.77 996.87 998.14 998.75 999.51 1000.24 1001.19 1001.35 1002.24 1003.40 1004.80 1005.70 1006.62 1007.77 1008.75 1010.33 1011.56 1012.27 1013.21 1014.34 1014.31 1015.09 1015.59 1016.05 1016.25 1016.77 1017.45 1017.75 1018.14 1018.43 1018.34 1018.65 1018.97 1019.52
Thickness
5766 5770 5771 5764 5732 5721 5732 5768 5798 5797 5804 5828 5830 5817 5816 5825 5802 5774 5798 5783 5794 5799 5806 5813 5816 5816 5814 5821 5829 5828 5826 5823 5821 5823 5825 5823 5820 5818 5815 5812 5810 5808 5806 5804 5802 5800 5798 5797 5796
5759 5764 5759 5741 5711 5704 5730 5782 5792 5811 5816 5816 5829 5823 5815 5811 5824 5804 5800 5834 5816 5806 5811 5811 5818 5818 5816 5819 5824 5828 5827 5824 5821 5820 5821 5820 5819 5816 5814 5811 5809 5807 5804 5803 5801 5799 5797 5796 5794
5752 5754 5736 5720 5701 5706 5732 5783 5802 5808 5820 5811 5805 5816 5815 5812 5819 5827 5841 5851 5837 5825 5820 5814 5819 5821 5820 5818 5820 5825 5825 5823 5820 5819 5817 5817 5816 5815 5812 5809 5809 5806 5804 5802 5801 5799 5797 5795 5793
5740 5735 5727 5709 5712 5738 5758 5780 5797 5794 5808 5816 5809 5799 5824 5835 5827 5836 5844 5835 5828 5827 5828 5822 5821 5824 5822 5819 5820 5822 5824 5823 5820 5818 5815 5815 5814 5813 5810 5807 5807 5806 5804 5802 5800 5798 5796 5794 5792
5726 5714 5697 5701 5718 5742 5766 5777 5787 5785 5787 5801 5804 5786 5803 5824 5835 5838 5842 5832 5829 5826 5819 5826 5824 5824 5821 5821 5821 5821 5822 5822 5819 5817 5815 5813 5812 5811 5810 5807 5804 5805 5803 5801 5799 5796 5794 5792 5789
5699 5698 5680 5686 5717 5742 5757 5773 5779 5783 5786 5799 5801 5798 5800 5829 5829 5828 5832 5830 5828 5825 5817 5824 5823 5822 5822 5821 5820 5820 5820 5822 5819 5816 5815 5812 5810 5808 5808 5807 5803 5802 5800 5800 5797 5795 5792 5789 5785
5684 5672 5672 5691 5705 5722 5747 5768 5767 5770 5776 5790 5798 5780 5795 5805 5823 5818 5824 5825 5826 5824 5822 5820 5820 5818 5823 5821 5819 5818 5819 5819 5819 5817 5814 5812 5809 5807 5806 5805 5802 5800 5799 5797 5796 5792 5788 5786 5784
5674 5663 5671 5680 5692 5703 5744 5753 5762 5763 5770 5794 5796 5773 5780 5805 5824 5821 5809 5816 5818 5821 5825 5820 5817 5816 5820 5819 5820 5818 5817 5817 5816 5815 5815 5812 5808 5808 5805 5803 5801 5798 5796 5795 5794 5790 5786 5784 5781
5671 5638 5641 5664 5687 5700 5737 5729 5752 5769 5771 5787 5794 5804 5805 5805 5811 5810 5802 5805 5810 5815 5818 5816 5815 5813 5816 5818 5818 5818 5816 5815 5814 5812 5812 5810 5808 5808 5806 5803 5800 5797 5793 5793 5793 5788 5785 5781 5776
5648 5627 5646 5667 5677 5688 5722 5713 5732 5747 5757 5769 5787 5812 5812 5816 5802 5806 5799 5798 5808 5811 5813 5814 5815 5813 5809 5813 5814 5814 5814 5814 5813 5812 5810 5808 5807 5805 5804 5801 5799 5795 5792 5793 5791 5784 5782 5778 5774
5647 5638 5647 5665 5672 5684 5704 5708 5727 5732 5738 5752 5757 5772 5798 5799 5794 5805 5803 5802 5810 5811 5814 5814 5814 5811 5807 5810 5812 5813 5811 5812 5812 5809 5809 5806 5804 5804 5801 5799 5798 5795 5792 5790 5785 5784 5780 5778 5772
5636 5647 5648 5663 5671 5676 5688 5709 5719 5726 5738 5757 5762 5764 5755 5801 5795 5805 5804 5803 5809 5809 5810 5813 5812 5808 5807 5808 5810 5811 5810 5809 5810 5808 5806 5803 5802 5802 5799 5798 5797 5795 5790 5788 5783 5779 5776 5773 5769
5635 5642 5650 5658 5663 5673 5686 5698 5708 5725 5743 5755 5765 5761 5745 5778 5795 5810 5814 5810 5810 5810 5809 5811 5810 5808 5808 5807 5808 5807 5809 5808 5807 5806 5805 5801 5800 5799 5798 5797 5796 5792 5791 5786 5781 5775 5774 5769 5764
5627 5632 5641 5651 5657 5665 5669 5684 5699 5736 5742 5744 5757 5753 5727 5732 5793 5797 5804 5803 5809 5810 5810 5812 5811 5809 5807 5808 5806 5804 5805 5806 5803 5803 5803 5799 5800 5797 5795 5795 5793 5791 5788 5784 5780 5775 5769 5763 5759
5622 5619 5633 5643 5652 5658 5664 5669 5689 5729 5732 5732 5743 5758 5742 5740 5762 5787 5806 5809 5813 5812 5810 5810 5808 5807 5805 5805 5803 5801 5803 5803 5801 5800 5801 5799 5799 5797 5795 5792 5791 5788 5785 5783 5776 5770 5764 5758 5755
5607 5610 5604 5627 5639 5655 5647 5641 5697 5706 5712 5726 5731 5746 5740 5720 5742 5766 5788 5799 5806 5809 5806 5803 5804 5803 5802 5800 5798 5797 5796 5799 5798 5798 5799 5797 5799 5795 5791 5789 5788 5783 5780 5776 5768 5763 5756 5750 5747
5582 5581 5592 5607 5620 5623 5624 5625 5690 5689 5698 5716 5722 5725 5735 5740 5746 5754 5772 5780 5796 5801 5801 5798 5795 5793 5794 5793 5792 5792 5791 5793 5794 5794 5793 5795 5793 5792 5785 5785 5783 5778 5773 5767 5762 5759 5749 5743 5741
5573 5574 5584 5591 5606 5599 5602 5618 5664 5672 5673 5697 5714 5717 5724 5736 5746 5741 5764 5771 5781 5782 5782 5785 5787 5786 5787 5787 5787 5786 5786 5787 5789 5789 5788 5788 5788 5786 5780 5778 5775 5772 5766 5760 5757 5752 5745 5738 5734
5578 5576 5575 5587 5599 5578 5588 5601 5635 5656 5661 5681 5704 5711 5716 5727 5741 5731 5746 5767 5771 5771 5770 5775 5781 5784 5786 5782 5781 5780 5780 5781 5781 5785 5782 5780 5779 5778 5776 5772 5770 5764 5757 5752 5751 5744 5736 5731 5729
5573 5566 5568 5580 5589 5568 5579 5589 5620 5642 5659 5679 5698 5708 5712 5727 5739 5727 5733 5759 5763 5757 5756 5760 5775 5780 5784 5782 5780 5782 5782 5780 5781 5776 5773 5771 5771 5770 5769 5765 5761 5757 5750 5746 5741 5739 5731 5724 5720
5567 5566 5568 5564 5579 5579 5571 5579 5608 5643 5658 5674 5698 5711 5708 5719 5723 5723 5733 5742 5752 5753 5742 5740 5766 5773 5779 5781 5776 5773 5775 5775 5770 5766 5765 5763 5764 5764 5760 5757 5753 5748 5743 5738 5736 5735 5729 5719 5714
5561 5576 5576 5573 5567 5564 5576 5556 5601 5630 5650 5663 5683 5707 5712 5711 5720 5728 5730 5724 5746 5756 5741 5738 5744 5768 5776 5778 5773 5774 5766 5764 5759 5758 5756 5756 5758 5757 5751 5748 5744 5740 5737 5733 5732 5730 5725 5718 5707
5568 5580 5570 5572 5560 5555 5571 5552 5605 5614 5631 5657 5675 5697 5713 5710 5711 5722 5730 5725 5750 5753 5765 5743 5741 5749 5764 5771 5768 5764 5761 5760 5755 5750 5748 5749 5748 5746 5740 5739 5736 5733 5731 5728 5725 5723 5719 5714 5705
5576 5566 5562 5563 5551 5542 5571 5559 5600 5601 5636 5657 5678 5692 5709 5705 5710 5721 5727 5731 5739 5745 5753 5750 5735 5722 5751 5763 5761 5760 5754 5753 5747 5741 5742 5739 5738 5733 5732 5733 5730 5726 5724 5722 5718 5715 5711 5708 5700
5567 5547 5524 5524 5513 5533 5564 5561 5600 5624 5644 5662 5671 5683 5705 5704 5706 5709 5712 5722 5733 5748 5755 5738 5722 5716 5734 5750 5750 5750 5751 5751 5745 5739 5738 5733 5728 5726 5726 5727 5723 5720 5718 5716 5713 5709 5703 5700 5693
5551 5547 5521 5514 5519 5531 5559 5560 5586 5629 5645 5653 5661 5677 5694 5698 5702 5704 5714 5723 5732 5737 5743 5724 5708 5706 5724 5747 5746 5748 5747 5748 5743 5739 5734 5729 5723 5721 5722 5721 5718 5715 5713 5711 5705 5702 5696 5693 5689
5554 5544 5544 5535 5533 5525 5546 5570 5600 5611 5620 5643 5656 5672 5684 5693 5698 5708 5715 5734 5735 5740 5735 5738 5734 5722 5742 5747 5748 5747 5744 5744 5743 5734 5731 5725 5722 5718 5717 5713 5711 5708 5706 5704 5700 5695 5690 5689 5682
5559 5551 5528 5518 5524 5524 5550 5563 5573 5590 5604 5612 5618 5643 5671 5682 5696 5704 5713 5723 5735 5742 5739 5743 5741 5739 5742 5743 5745 5743 5741 5740 5736 5732 5723 5720 5718 5715 5711 5705 5707 5703 5700 5696 5694 5688 5684 5681 5675
5551 5540 5536 5526 5531 5531 5538 5559 5584 5583 5587 5603 5615 5639 5660 5682 5694 5701 5712 5721 5731 5737 5742 5740 5737 5733 5734 5740 5736 5738 5732 5731 5726 5722 5718 5716 5713 5710 5704 5703 5701 5698 5693 5690 5686 5684 5678 5673 5667
5559 5555 5545 5526 5534 5545 5548 5570 5590 5583 5590 5597 5611 5636 5664 5696 5698 5702 5712 5718 5720 5720 5730 5735 5736 5733 5735 5735 5731 5730 5723 5720 5719 5715 5707 5710 5706 5704 5700 5698 5695 5689 5688 5684 5681 5681 5675 5668 5659